www.pogodaiklimat.ru

Погода и климат >> Архив погоды >> Россия >> Алтайский край >> Шелаболиха


ПОГОДА в Шелаболихе

  • Прогноз погоды в Шелаболихе
  • Монитор погоды в Шелаболихе
  • Климат города

АРХИВ ПОГОДЫ в Шелаболихе

Время (UTC), дата Ветер
(напр.,м/с)
 
Видим.   Явления Облачность Т
(С)
Тd
(С)
f
(%)
Тe
(С)
Тes
(С)
Комфортность P
(гПа)
Po
(гПа)
Тmin
(С)
Tmax
(С)
R
(мм)
R24
(мм)
S
(см)
00 15.02 З 5
{7}
20 км слабый снег 10/0
[As op]
-7.6 -9.6 86 -15 -15 1017.7 995.3 -12.5 0.2 15
03 15.02 З 3 10 км слабый снег 10 баллов -12.2 -14.2 85 -18 -18 1021.1 998.7
06 15.02 ЮЗ 4 20 км {снег} ясно -12.9 -17.0 71 -20 -18 1021.3 998.4
09 15.02 З 2 20 км ясно -13.0 -18.0 66 -18 -16 1023.9 1001.3
12 15.02 З 2
{7}
50 км 10/0
[Ac As Ci fib]
-16.9 -20.6 73 -22 -22 1024.6 1002.1 -7.7 0.0
15 15.02 З 4 10 км слабый снег 10 баллов -17.3 -20.7 75 -26 -26 1028.3 1005.3
18 15.02 ЮЗ 2 10 км слабый снег 10/0
[As op]
-18.2 -20.8 80 -24 -24 1029.5 1006.0
21 15.02 ЮЗ 2 50 км 10 баллов -20.8 -23.1 82 -27 -27 1031.4 1008.0
00 16.02 ЮЗ 2
{5}
50 км ясно -21.7 -24.1 81 -28 -28 1032.6 1008.6 -21.9 0.3 15
03 16.02 ЮЗ 2 20 км 7 баллов -20.7 -23.0 82 -27 -26 1034.2 1010.7 -23.0
06 16.02 ЮЗ 1 50 км ясно -15.5 -20.0 68 -18 -14 1035.1 1011.7
09 16.02 ЮЗ 2 50 км ясно -14.4 -20.2 61 -19 -17 1037.7 1014.7
12 16.02 ЮЗ 2
{4}
50 км ясно -19.8 -23.4 73 -26 -26 1039.5 1016.0 -14.4
15 16.02 ЮЗ 2 ясно -21.8 -24.3 80 -28 -28 1040.7 1017.3
18 16.02 ЮЗ 2 50 км ясно -22.8 -25.1 81 -29 -29 1041.6 1017.8
21 16.02 ЮЗ 1 50 км ясно -25.3 -28.1 77 -29 -29 1042.8 1018.7
00 17.02 ЮЗ 1
{3}
50 км ясно -24.4 -27.1 78 -28 -28 1042.9 1018.9 -28.1 15
03 17.02 ЮЗ 1 50 км ясно -23.9 -26.8 77 -27 -26 1045.3 1021.3
06 17.02 ЮЗ 1 50 км ясно -17.6 -21.1 74 -20 -16 1043.9 1020.1
09 17.02 Ю 1 50 км 4 балла -13.7 -19.0 64 -16 -15 1043.0 1020.0
12 17.02 ЮЗ 1
{2}
50 км 4/0
[Cc]
-17.7 -21.3 73 -21 -21 1043.1 1019.3 -13.3
15 17.02 ЮЗ 2 50 км ясно -22.6 -24.7 83 -29 -29 1043.9 1020.0
18 17.02 З 1 50 км ясно -21.2 -23.5 82 -24 -24 1043.1 1019.0
21 17.02 ЮЗ 1 50 км ясно -23.7 -26.3 79 -27 -27 1044.0 1020.0
00 18.02 ЮЗ 2
{2}
50 км ясно -24.6 -27.3 78 -31 -31 опасность
обморожения
1042.8 1018.3 -24.9 15
03 18.02 ЮЗ 2 50 км ясно -23.4 -26.1 78 -30 -29 1044.0 1020.0 -25.4
06 18.02 ЮЗ 2 50 км ясно -17.5 -20.3 79 -23 -19 1041.9 1018.2
09 18.02 З 2 50 км ясно -13.5 -18.3 67 -18 -16 1041.7 1018.7
12 18.02 З 3
{5}
50 км ясно -19.7 -22.7 77 -27 -27 1042.3 1018.7 -13.1
15 18.02 ЮЗ 2 50 км ясно -22.8 -25.1 81 -29 -29 1042.6 1018.7
18 18.02 ЮЗ 2 50 км ясно -21.1 -23.6 80 -27 -27 1040.8 1016.7
21 18.02 ЮЗ 3 50 км ясно -21.8 -24.4 79 -30 -30 1041.0 1017.3
00 19.02 ЮЗ 4
{6}
50 км ясно -20.7 -23.5 78 -30 -30 1040.1 1016.1 -23.3 15
03 19.02 ЮЗ 5 4000 м слабый ливневой снег 10 баллов -18.0 -20.7 79 -28 -28 1040.7 1017.3
06 19.02 ЮЗ 5 10 км слабый ливневой снег 10/10 600 м
[Cb cap]
-14.0 -17.3 76 -23 -23 1040.0 1016.6
09 19.02 ЮЗ 4 10 км слабый снег 10 баллов -12.0 -15.0 78 -19 -19 1040.1 1017.3
12 19.02 ЮЗ 5
{8}
50 км в посл. час снег {ливн. осадки} 8/0
[Ac trans]
-12.6 -15.5 79 -21 -21 1040.4 1017.1 -11.8 0.6
15 19.02 З 5 50 км 10 баллов -11.6 -14.3 80 -20 -20 1041.5 1018.7
18 19.02 З 4 50 км 10/10 600 м
[Sc]
-11.8 -14.3 82 -19 -19 1040.5 1017.3
21 19.02 ЮЗ 4 50 км 10 баллов -12.9 -15.5 81 -20 -20 1040.2 1017.3
00 20.02 ЮЗ 4
{8}
50 км 10/0
[Ac As]
-11.6 -14.4 80 -19 -19 1039.5 1016.3 -14.9 17
03 20.02 З 4 50 км 10 баллов -10.6 -14.2 75 -18 -18 1040.0 1017.3
06 20.02 З 2 50 км 6/0
[Ac As Ci fib]
-9.0 -14.0 67 -13 -10 1039.4 1016.5
09 20.02 ЮЗ 2 50 км 7 баллов -7.9 -13.1 66 -12 -11 1038.4 1016.0
12 20.02 ЮЗ 1
{8}
50 км 6/0
[Cc]
-11.7 -14.7 78 -14 -14 1037.1 1014.0 -7.7
15 20.02 ЮЗ 2 50 км 6 баллов -14.3 -16.1 86 -19 -19 1036.2 1013.3
18 20.02 ЮЗ 2 50 км 6/0
[Cs]
-12.8 -15.2 82 -17 -17 1033.3 1010.6
21 20.02 Ю 1 50 км ясно -14.2 -15.9 87 -17 -17 1033.6 1010.7
00 21.02 штиль 0
{4}
50 км 8/0
[Cs]
-13.9 -15.5 88 -14 -14 1031.0 1007.8 -15.0 17
03 21.02 СВ 1 20 км 7 баллов -14.2 -16.0 86 -17 -16 1030.8 1008.0
06 21.02 ЮВ 1 50 км 10/0
[Cs]
-8.0 -12.1 72 -10 -6 1028.2 1005.6
09 21.02 В 2 50 км 10 баллов -5.3 -11.0 64 -9 -9 1026.0 1004.0
12 21.02 В 1
{4}
50 км 10/0
[Ac As Cc]
-6.9 -11.1 72 -9 -9 1024.0 1001.5 -5.1
15 21.02 В 1 50 км 10 баллов -7.8 -11.1 77 -10 -10 1022.1 1000.0
18 21.02 СВ 1 50 км 10/0
[Cs]
-8.0 -11.7 75 -10 -10 1019.3 996.9
21 21.02 Ю 3 50 км 10 баллов -7.3 -11.6 71 -13 -13 1017.9 996.0

 

Местоположение метеостанции Шелаболиха (Алтайский край, Россия): широта 53.42 долгота 82.60 высота над уровнем моря 170 м.

В архиве по умолчанию представлена погода в Шелаболихе за последнюю неделю. Архивные данные за месяц целиком и за предыдущие месяцы, начиная с января 2011 года, Вы можете получить, выбрав интересующий диапазон дат из раскрывающегося списка и нажав кнопку "Ввод!".

Внимание! Время в таблицах - всемирное. Для получения местного времени необходимо прибавить поправку, которая в Шелаболихе равна 7 ч.

Смотрите также архив погоды в соседних городах и на ближайших метеорологических станциях:

Погода в Ребрихе (Алтайский край, Россия) (42 км)
Погода в Сузуне (Новосибирская область, Россия) (43 км)
Погода в Барнауле (Алтайский край, Россия) (61 км)
Погода в Тальменке (Алтайский край, Россия) (78 км)
Погода в Камень-на-Оби (Алтайский край, Россия) (98 км)
Погода в Алейской (Алтайский край, Россия) (101 км)
Погода в Мамонтово (Алтайский край, Россия) (103 км)
Погода в Посевной (Новосибирская область, Россия) (109 км)
Погода в Ордынском (Новосибирская область, Россия) (115 км)
Погода в Дальнем (Новосибирская область, Россия) (119 км)

Пояснения к столбцам:

Ветер - указаны скорость ветра в м/с - средняя за 10 мин, порывы в срок и между сроками (в фигурных скобках) и направление, откуда дует ветер: С - северный, СВ - северо-восточный, В - восточный, ЮВ - юго-восточный, Ю - южный, ЮЗ - юго-западный, З - западный, СЗ - северо-западный.
Видимость - горизонтальная дальность видимости в метрах или километрах. При видимости от 1 до 10 км при отсутствии осадков обычно наблюдается дымка, при ухудшении видимости до 1 км и менее - туман. В сухую погоду видимость может ухудшаться дымом, пылью или мглою.
Явления - указаны атмосферные явления, наблюдавшиеся в срок или в последний час перед сроком; фигурными скобками обозначены явления, наблюдавшиеся между сроками (за 1-3 часа до срока); квадратными скобками обозначены град или гололедные отложения с указанием их диаметра в мм.
Облачность - указаны через наклонную черту общая и нижняя облачность в баллах и высота нижней границы облаков в метрах; квадратными скобками обозначены формы облаков: Ci - перистые, Cs - перисто-слоистые, Cc - перисто-кучевые, Ac - высококучевые, As - высокослоистые, Sc - слоисто-кучевые, Ns - слоисто-дождевые, Cu - кучевые, Cb - кучево-дождевые. Подробнее классификацию облаков см. в Атласе облаков (PDF).
T - Температура воздуха - температура, измеренная на высоте 2 м над землей.
Td - Температура точки росы - температура, при понижении до которой содержащийся в воздухе водяной пар достигнет насыщения.
f - Относительная влажность воздуха - влажноcть воздуха, измеренная на высоте 2 м над землей.
Te - Эффективная температура - температура, которую ощущает одетый по сезону человек в тени. Характеристика душности погоды. При расчете учитывается влияние влажности воздуха и скорости ветра на теплоощущения человека.
Tes - Эффективная температура на солнце - температура, которую ощущает человек, с поправкой на солнечный нагрев. Характеристика знойности погоды. Зависит от высоты солнца над горизонтом, облачности и скорости ветра. Ночью, в пасмурную погоду, а также при ветре 12 м/с и более поправка равна нулю.
P - Атмосферное давление - приведенное к уровню моря атмосферное давление.
Po - Атмосферное давление - измеренное на уровне метеостанции атмосферное давление.
Tmin - Минимальная температура - минимум температуры воздуха на высоте 2 м над землей.
Tmax - Максимальная температура - максимум температуры воздуха на высоте 2 м над землей.
R - Количество осадков - Количество выпавших осадков за период времени, мм. При наведении курсора мыши на число - период времени, за который выпало указанное количество осадков.
R24 - Количество осадков - Количество выпавших осадков за 24 часа, мм.
S - Снежный покров - Высота снежного покрова, см. При наведении курсора мыши на число - состояние снежного покрова и степень покрытия местности в баллах.